AirNav   Pilot Hours Calculator
 
 1011 users online  

4MA4 J K L Heliport
New Bedford, Massachusetts, USA

GOING TO NEW BEDFORD?


FAA INFORMATION EFFECTIVE 22 APRIL 2021

Location

FAA Identifier: 4MA4
Lat/Long: 41-37-17.3700N 071-00-47.1400W
41-37.289500N 071-00.785667W
41.6214917,-71.0130944
(estimated)
Elevation: 30 ft. / 9 m (estimated)
Variation: 16W (1995)
From city: 6 miles SW of NEW BEDFORD, MA
Time zone: UTC -4 (UTC -5 during Standard Time)
Zip code: 02747

Heliport Operations

Heliport use: Private use. Permission required prior to landing
Activation date: 01/1998
Control tower: no
ARTCC: BOSTON CENTER
FSS: BRIDGEPORT FLIGHT SERVICE STATION
Attendance: UNATNDD
Wind indicator: yes
Segmented circle: no

Heliport Communications

WX ASOS at EWB (4 nm NE): 126.85 (508-992-0195)
WX ASOS at UUU (13 nm SW): 132.075 (401-846-5910)
WX ASOS at TAN (15 nm N): 132.675 (508-824-5005)
WX ASOS at OQU (18 nm W): 118.6
WX ASOS at PVD (20 nm W): 124.2 (401-734-2818)

Nearby radio navigation aids

VOR radial/distance  VOR name  Freq  Var
PVDr122/19.7PROVIDENCE VOR/DME115.6014W
MVYr322/22.5MARTHAS VINEYARD VOR/DME114.5015W
SEYr058/37.2SANDY POINT VOR/DME117.8015W

Heliport Services

Runway Information

Helipad H1

Dimensions: 50 x 50 ft. / 15 x 15 m
Surface: turf
Traffic pattern: leftleft

Heliport Ownership and Management from official FAA records

Ownership: Privately-owned
Owner: JOSEPH J. LUIZ
5 STRAWBERRY LANE
NORTH DARTMOUTH, MA 02747
Phone 508-525-5700
Manager: JOSEPH J. LUIZ
5 STRAWBERRY LANE
NORTH DARTMOUTH, MA 02747
Phone 508-525-5700

Heliport Operational Statistics

Aircraft based on the field: 1
Helicopters: 1
    

Additional Remarks

A52-H1 +35 FT TREES 143 FT W; +25 FT TREES 88 FT N; +50 FT TREES 263 FT E; +25 FT HOUSE 150 FT S.
FOR CD CTC PROVIDENCE APCH AT 401-738-8945, WHEN APCH CLSD CTC BOSTON ARTCC AT 603-879-6859.

Instrument Procedures

There are no published instrument procedures at 4MA4.

Some nearby airports with instrument procedures:

KEWB - New Bedford Regional Airport (4 nm NE)
KUUU - Newport State Airport (13 nm SW)
KTAN - Taunton Municipal Airport - King Field (15 nm N)
KOQU - Quonset State Airport (18 nm W)
KPVD - Theodore Francis Green State Airport (20 nm W)
 
Loc | Ops | Rwys | IFR | FBO | Links
Com | Nav | Svcs | Stats | Notes
Area around 4MA4 (J K L Heliport)
 
Road maps at: MapQuest Bing Google
 
Aerial photo
No photo
 
Sectional chart

 
Airport distance calculator
Flying to J K L Heliport? Find the distance to fly.

From to 4MA4

Sunrise and sunset
Times for 22-Apr-2021
 Local
(UTC-4)
 Zulu
(UTC)
Morning civil twilight05:2509:25
Sunrise05:5409:54
Sunset19:3123:31
Evening civil twilight20:0000:00

Current date and time
Zulu (UTC)  23-Apr-2021 01:16:47
Local (UTC-4)  22-Apr-2021 21:16:47
 
METAR
KEWB 
5nm NE 
230053Z 28012G22KT 10SM CLR 05/M10 A2980 RMK AO2 PK WND 28029/0042 SLP092 T00501100
KUUU 
13nm SW 
230053Z AUTO 29012G20KT 10SM CLR 04/M09 A2982 RMK AO2 PK WND 31028/0007 SLP098 T00441089
KTAN 
16nm N 
230052Z AUTO 27011G18KT 10SM CLR 05/M10 A2979 RMK AO2 SLP088 T00501100
KOQU 
18nm W 
230050Z 31010KT 10SM SKC 05/M09 A2982
KPVD 
20nm W 
230051Z 28011G18KT 10SM FEW075 05/M10 A2982 RMK AO2 SLP097 T00501100
TAF
KPVD 
20nm W 
222022Z 2220/2318 28022G32KT P6SM SCT070 BKN250 FM222300 28015G30KT P6SM SCT080 SCT250 FM230000 29013G26KT P6SM FEW250 FM231400 28016G25KT P6SM SCT050
KFMH 
22nm E 
221726Z 2218/2318 27021G34KT P6SM BKN060 FM222300 28017G34KT P6SM SCT060 FM230000 28014G28KT P6SM SCT100 FM231000 26013G25KT P6SM SKC FM231200 27016G27KT P6SM FEW250
NOTAMs
Click for the latest NOTAMs
NOTAMs are issued by the DoD/FAA and will open in a separate window not controlled by AirNav.

 

 
 

Would you like to see your business listed on this page?

 If your business provides an interesting product or service to pilots, flight crews, aircraft, or users of the J K L Heliport, you should consider listing it here.  To start the listing process, click on the button below
 
Add a business
 

Other Pages about J K L Heliport

Update a link
 
Copyright © AirNav, LLC. All rights reserved. Privacy Policy  Contact